Regional Weather Roundup
Issued by NWS Midland/Odessa, TX

Home | Current Version | Previous Version | Text Only | Print | Product List | Glossary On
Versions: 1 2 3 4 5 6 7 8 9 10 11 12 13 14 15 16 17 18 19 20 21 22 23 24 25 26 27 28 29 30 31 32 33 34 35 36 37 38 39 40 41 42 43 44 45 46 47 48 49 50
000
ASUS44 KMAF 181110
RWRMAF
MIDLAND AREA WEATHER ROUNDUP
NATIONAL WEATHER SERVICE MIDLAND TX
600 AM CDT FRI APR 18 2014

...IN SOUTHWEST TEXAS AND SOUTHEAST NEW MEXICO...

CITY           SKY/WX    TMP DP  RH WIND       PRES   REMARKS
ALPINE         MOCLDY    52  47  84 CALM      30.23S
ANDREWS        CLOUDY    49  46  92 E7        30.21S
ARTESIA        CLOUDY    48  41  76 SE8       30.20F
BIG SPRING     CLOUDY    54  49  85 NE6       30.22S
CARLSBAD       CLOUDY    53  44  71 SE8       30.18F
DRYDEN           N/A     61  58  90 E10       30.13S
FORT STOCKTON  CLOUDY    59  53  80 SE9       30.17R
GUAD PASS      MOCLDY    46  44  93 NE33      30.17R FOG     WCI  36
HOBBS          NOT AVBL
MARFA          MOCLDY    45  37  76 N6        30.20S
MIDLAND AIRPK  CLOUDY    52  49  88 E3        30.21S
MIDLAND INTL   CLOUDY    52  48  86 NE7       30.20S
ODESSA         CLOUDY    52  48  86 E9        30.20S
PECOS          CLOUDY    55  47  77 NE13      30.17S
PRESIDIO       FAIR      63  48  59 NE14G20   30.09S
SEMINOLE       CLOUDY    48  45  89 E5        30.22S
SNYDER         CLOUDY    49  47  93 N3        30.21F
WINK           CLOUDY    55  49  80 E12       30.17S
$$
...OTHER STATIONS IN TEXAS...

CITY           SKY/WX    TMP DP  RH WIND       PRES   REMARKS
ABILENE        CLOUDY    51  49  92 N8        30.21S FOG
AMARILLO       MOCLDY    39  34  82 S9        30.22S WCI  33
AUSTIN         CLOUDY    60  59  96 CALM      30.16R FOG
BROWNSVILLE    CLOUDY    68  66  93 N3        30.06R
CORPUS CHRISTI CLOUDY    65  61  87 NE10      30.11R
DALLAS FTW     CLOUDY    57  54  89 NE3       30.19R FOG
DEL RIO        CLOUDY    64  60  87 E7        30.13R
EL PASO        MOCLDY    58  37  45 N6        30.09S
HOUSTON INT    CLOUDY    60  54  80 N6        30.14S
LUBBOCK        CLOUDY    44  41  89 SW3       30.22S
SAN ANGELO     CLOUDY    56  52  86 NE5       30.18R
SAN ANTONIO    CLOUDY    61  59  93 N5        30.16R FOG
WACO           MOCLDY    56  54  93 CALM      30.17S FOG
WICHITA FALLS  NOT AVBL
$$
...OTHER LOCATIONS IN NEW MEXICO...

CITY           SKY/WX    TMP DP  RH WIND       PRES   REMARKS
ALAMAGORDO     PTCLDY    52  25  35 N9        30.13R
ALBUQUERQUE    PTCLDY    48  26  42 N8        30.14S
CANNON AFB     CLEAR     35  33  92 CALM      30.22S FOG
CLOVIS         CLEAR     34  28  80 S5        30.24F WCI  30
HOLLOMAN AFB   MOCLDY    46  24  41 E5        30.12R
ROSWELL        CLOUDY    50  41  71 S10       30.20S
RUIDOSO        PTCLDY    39  25  56 SE5       30.24S WCI  36
SANTA FE       CLEAR     42  26  53 SE3       30.19S
TRUTH OR CONSE PTCLDY    49  19  30 CALM      30.11R
TUCUMCARI      CLEAR     38  33  82 SW6       30.20S WCI  33
$$



USA.gov is the U.S. government's official web portal to all federal, state and local government web resources and services.